| time (UTC) | temp F | wind direction | speed MPH | gust MPH | rain 1hr in | rain 24hr in | rain mn in | humidity % | barometer mb |
| 20260906090306 | 71 | 157 | 0.0 | 0.0 | 0.00 | 0.00 | 0.00 | 97 | 1010.2 |
| 20260906085807 | 71 | 157 | 0.0 | 0.0 | 0.00 | 0.00 | 0.00 | 97 | 1010.0 |
| 20260906085307 | 70 | 157 | 0.0 | 0.0 | 0.00 | 0.00 | 0.00 | 97 | 1010.0 |
| 20260906084800 | 70 | 158 | 0.0 | 0.0 | 0.00 | 0.00 | 0.00 | 97 | 1010.2 |
| 20260906084300 | 70 | 158 | 0.0 | 0.0 | 0.00 | 0.00 | 0.00 | 97 | 1010.4 |
| 20260906083755 | 71 | 157 | 0.0 | 1.0 | 0.00 | 0.00 | 0.00 | 97 | 1010.2 |
| 20260906083250 | 70 | 157 | 0.0 | 0.0 | 0.00 | 0.00 | 0.00 | 97 | 1010.2 |
| 20260906082745 | 71 | 157 | 0.0 | 0.0 | 0.00 | 0.00 | 0.00 | 97 | 1010.2 |
| 20260906082240 | 71 | 157 | 0.0 | 0.0 | 0.00 | 0.00 | 0.00 | 97 | 1009.9 |
| 20260906081736 | 71 | 158 | 0.0 | 1.0 | 0.00 | 0.00 | 0.00 | 97 | 1010.2 |
| 20260906081231 | 70 | 158 | 0.0 | 0.0 | 0.00 | 0.00 | 0.00 | 97 | 1010.0 |
| 20260906080728 | 71 | 158 | 0.0 | 0.0 | 0.00 | 0.00 | 0.00 | 97 | 1010.0 |
| 20260906080224 | 71 | 158 | 0.0 | 0.0 | 0.00 | 0.00 | 0.00 | 97 | 1010.0 |
| 20260906075724 | 71 | 158 | 0.0 | 0.0 | 0.00 | 0.00 | 0.00 | 96 | 1009.9 |
| 20260906075223 | 71 | 158 | 0.0 | 0.0 | 0.00 | 0.00 | 0.00 | 96 | 1010.0 |
| 20260906074719 | 71 | 158 | 0.0 | 0.0 | 0.00 | 0.00 | 0.00 | 96 | 1009.7 |
| 20260906074213 | 71 | 158 | 0.0 | 0.0 | 0.00 | 0.00 | 0.00 | 96 | 1009.8 |
| 20260906073713 | 71 | 158 | 1.0 | 1.0 | 0.00 | 0.00 | 0.00 | 96 | 1009.8 |
| 20260906073208 | 71 | 158 | 0.0 | 1.0 | 0.00 | 0.00 | 0.00 | 96 | 1009.9 |
| 20260906072704 | 71 | 157 | 0.0 | 0.0 | 0.00 | 0.00 | 0.00 | 96 | 1009.8 |
| 20260906072159 | 71 | 157 | 0.0 | 0.0 | 0.00 | 0.00 | 0.00 | 96 | 1010.0 |
| 20260906071655 | 71 | 157 | 0.0 | 0.0 | 0.00 | 0.00 | 0.00 | 96 | 1009.9 |
| 20260906071154 | 71 | 157 | 0.0 | 0.0 | 0.00 | 0.00 | 0.00 | 96 | 1010.0 |
| 20260906070652 | 71 | 157 | 0.0 | 0.0 | 0.00 | 0.00 | 0.00 | 96 | 1010.0 |
| 20260906070147 | 71 | 157 | 0.0 | 0.0 | 0.00 | 0.00 | 0.00 | 96 | 1010.1 |
| 20260906065646 | 71 | 157 | 0.0 | 0.0 | 0.00 | 0.00 | 0.00 | 96 | 1010.0 |
| 20260906065142 | 72 | 157 | 0.0 | 0.0 | 0.00 | 0.00 | 0.00 | 96 | 1010.1 |
| 20260906064637 | 72 | 157 | 0.0 | 0.0 | 0.00 | 0.00 | 0.00 | 96 | 1010.0 |
| 20260906064132 | 72 | 157 | 0.0 | 0.0 | 0.00 | 0.00 | 0.00 | 96 | 1009.9 |
| 20260906063628 | 72 | 158 | 0.0 | 0.0 | 0.00 | 0.00 | 0.00 | 96 | 1010.0 |
| 20260906063123 | 72 | 158 | 0.0 | 0.0 | 0.00 | 0.00 | 0.00 | 96 | 1009.9 |
| 20260906062619 | 72 | 158 | 0.0 | 1.0 | 0.00 | 0.00 | 0.00 | 96 | 1010.0 |
| 20260906062118 | 72 | 158 | 1.0 | 1.0 | 0.00 | 0.00 | 0.00 | 96 | 1010.2 |
| 20260906061614 | 72 | 152 | 1.0 | 1.0 | 0.00 | 0.00 | 0.00 | 96 | 1010.3 |
| 20260906061114 | 71 | 151 | 1.0 | 1.0 | 0.00 | 0.00 | 0.00 | 96 | 1010.4 |
| 20260906060611 | 72 | 144 | 1.0 | 1.0 | 0.00 | 0.00 | 0.00 | 96 | 1010.5 |
| 20260906060108 | 72 | 144 | 0.0 | 0.0 | 0.00 | 0.00 | 0.00 | 96 | 1010.7 |
| 20260906055603 | 72 | 144 | 0.0 | 0.0 | 0.00 | 0.00 | 0.00 | 96 | 1010.7 |
| 20260906055058 | 72 | 144 | 0.0 | 1.0 | 0.00 | 0.00 | 0.00 | 96 | 1010.9 |
| 20260906054558 | 72 | 144 | 0.0 | 1.0 | 0.00 | 0.00 | 0.00 | 96 | 1010.9 |
| 20260906054053 | 72 | 144 | 0.0 | 0.0 | 0.00 | 0.00 | 0.00 | 96 | 1011.0 |
| 20260906053550 | 72 | 144 | 0.0 | 0.0 | 0.00 | 0.00 | 0.00 | 96 | 1010.8 |
| 20260906053045 | 72 | 144 | 0.0 | 1.0 | 0.00 | 0.00 | 0.00 | 96 | 1010.9 |
| 20260906052540 | 72 | 144 | 0.0 | 1.0 | 0.00 | 0.00 | 0.00 | 96 | 1010.8 |
| 20260906052037 | 72 | 144 | 0.0 | 0.0 | 0.00 | 0.00 | 0.00 | 95 | 1010.9 |
| 20260906051533 | 72 | 144 | 0.0 | 0.0 | 0.00 | 0.00 | 0.00 | 95 | 1010.9 |
| 20260906051028 | 72 | 143 | 0.0 | 1.0 | 0.00 | 0.00 | 0.00 | 95 | 1010.8 |
| 20260906050523 | 72 | 144 | 0.0 | 0.0 | 0.00 | 0.00 | 0.00 | 95 | 1011.1 |
| 20260906050018 | 72 | 144 | 0.0 | 0.0 | 0.00 | 0.00 | 0.00 | 95 | 1011.3 |
| 20260906045516 | 73 | 144 | 0.0 | 0.0 | 0.00 | 0.00 | 0.00 | 95 | 1011.1 |
| 20260906045012 | 73 | 144 | 0.0 | 1.0 | 0.00 | 0.00 | 0.00 | 95 | 1011.2 |
| 20260906044507 | 73 | 143 | 0.0 | 0.0 | 0.00 | 0.00 | 0.00 | 95 | 1011.3 |
| 20260906044003 | 73 | 143 | 0.0 | 1.0 | 0.00 | 0.00 | 0.00 | 95 | 1011.2 |
| 20260906043458 | 73 | 159 | 0.0 | 1.0 | 0.00 | 0.00 | 0.00 | 95 | 1011.1 |
| 20260906042954 | 73 | 159 | 0.0 | 0.0 | 0.00 | 0.00 | 0.00 | 95 | 1011.1 |
| 20260906042453 | 73 | 159 | 0.0 | 1.0 | 0.00 | 0.00 | 0.00 | 95 | 1010.9 |
| 20260906041953 | 73 | 166 | 1.0 | 1.0 | 0.00 | 0.00 | 0.00 | 94 | 1010.9 |
| 20260906041450 | 73 | 155 | 1.0 | 1.0 | 0.00 | 0.00 | 0.00 | 94 | 1010.9 |
| 20260906040949 | 73 | 116 | 0.0 | 0.0 | 0.00 | 0.00 | 0.00 | 94 | 1011.1 |
| 20260906040444 | 73 | 115 | 0.0 | 0.0 | 0.00 | 0.00 | 0.00 | 94 | 1011.0 |
| 20260906035939 | 73 | 117 | 0.0 | 1.0 | 0.00 | 0.02 | 0.02 | 93 | 1011.2 |
| 20260906035435 | 73 | 117 | 0.0 | 0.0 | 0.00 | 0.02 | 0.02 | 93 | 1011.1 |
| 20260906034931 | 73 | 118 | 0.0 | 0.0 | 0.00 | 0.02 | 0.02 | 93 | 1010.9 |
| 20260906034431 | 74 | 117 | 1.0 | 1.0 | 0.00 | 0.02 | 0.02 | 93 | 1011.3 |
| 20260906033927 | 74 | 166 | 0.0 | 1.0 | 0.00 | 0.02 | 0.02 | 93 | 1011.1 |
| 20260906033426 | 74 | 166 | 0.0 | 0.0 | 0.00 | 0.02 | 0.02 | 93 | 1011.2 |
| 20260906032922 | 74 | 166 | 0.0 | 1.0 | 0.00 | 0.02 | 0.02 | 92 | 1011.3 |
| 20260906032419 | 74 | 166 | 1.0 | 2.0 | 0.00 | 0.02 | 0.02 | 92 | 1011.3 |
| 20260906031919 | 74 | 166 | 1.0 | 1.0 | 0.00 | 0.02 | 0.02 | 92 | 1011.3 |
| 20260906031414 | 74 | 165 | 0.0 | 1.0 | 0.00 | 0.02 | 0.02 | 92 | 1011.4 |
| 20260906030909 | 75 | 166 | 0.0 | 0.0 | 0.00 | 0.02 | 0.02 | 92 | 1011.4 |
| 20260906030404 | 75 | 166 | 1.0 | 1.0 | 0.00 | 0.02 | 0.02 | 91 | 1011.5 |
| 20260906025859 | 75 | 166 | 0.0 | 0.0 | 0.00 | 0.02 | 0.02 | 91 | 1011.5 |
| 20260906025359 | 75 | 165 | 0.0 | 1.0 | 0.00 | 0.02 | 0.02 | 91 | 1011.2 |
| 20260906024857 | 75 | 185 | 2.0 | 3.0 | 0.00 | 0.02 | 0.02 | 90 | 1011.2 |
| 20260906024357 | 74 | 162 | 3.0 | 4.0 | 0.00 | 0.02 | 0.02 | 89 | 1011.2 |
| 20260906023852 | 75 | 190 | 2.0 | 2.0 | 0.00 | 0.02 | 0.02 | 89 | 1010.8 |
| 20260906023349 | 75 | 192 | 0.0 | 0.0 | 0.00 | 0.02 | 0.02 | 88 | 1011.0 |
| 20260906022848 | 74 | 207 | 1.0 | 2.0 | 0.00 | 0.02 | 0.02 | 89 | 1010.8 |
| 20260906022344 | 74 | 167 | 1.0 | 1.0 | 0.00 | 0.02 | 0.02 | 88 | 1010.7 |
| 20260906021839 | 74 | 164 | 0.0 | 0.0 | 0.00 | 0.02 | 0.02 | 88 | 1010.9 |
| 20260906021338 | 75 | 107 | 0.0 | 0.0 | 0.00 | 0.02 | 0.02 | 87 | 1011.0 |
| 20260906020834 | 75 | 107 | 0.0 | 1.0 | 0.00 | 0.02 | 0.02 | 86 | 1010.9 |
| 20260906020333 | 76 | 107 | 0.0 | 1.0 | 0.00 | 0.02 | 0.02 | 86 | 1011.0 |
| 20260906015828 | 76 | 174 | 1.0 | 1.0 | 0.00 | 0.02 | 0.02 | 85 | 1011.1 |
| 20260906015327 | 76 | 188 | 0.0 | 1.0 | 0.00 | 0.02 | 0.02 | 85 | 1011.1 |
| 20260906014826 | 77 | 178 | 1.0 | 2.0 | 0.00 | 0.02 | 0.02 | 84 | 1011.3 |
| 20260906014322 | 77 | 209 | 2.0 | 2.0 | 0.00 | 0.02 | 0.02 | 83 | 1011.1 |
| 20260906013818 | 77 | 226 | 2.0 | 6.0 | 0.00 | 0.02 | 0.02 | 83 | 1011.0 |
| 20260906013313 | 77 | 204 | 2.0 | 2.0 | 0.00 | 0.02 | 0.02 | 82 | 1011.0 |
| 20260906012808 | 77 | 213 | 1.0 | 2.0 | 0.00 | 0.02 | 0.02 | 81 | 1011.0 |
| 20260906012306 | 77 | 196 | 1.0 | 2.0 | 0.00 | 0.02 | 0.02 | 81 | 1011.1 |
| 20260906011758 | 76 | 191 | 1.0 | 3.0 | 0.00 | 0.02 | 0.02 | 81 | 1011.0 |
| 20260906011258 | 76 | 178 | 1.0 | 2.0 | 0.00 | 0.02 | 0.02 | 82 | 1011.1 |
| 20260906010754 | 76 | 172 | 1.0 | 1.0 | 0.00 | 0.02 | 0.02 | 81 | 1010.9 |
| 20260906010250 | 77 | 165 | 1.0 | 2.0 | 0.00 | 0.02 | 0.02 | 80 | 1010.8 |
| 20260906005745 | 77 | 151 | 1.0 | 2.0 | 0.00 | 0.02 | 0.02 | 80 | 1010.5 |
| 20260906005244 | 77 | 117 | 0.0 | 1.0 | 0.00 | 0.02 | 0.02 | 79 | 1010.6 |
| 20260906004743 | 77 | 116 | 0.0 | 0.0 | 0.00 | 0.02 | 0.02 | 78 | 1010.7 |
| 20260906004239 | 78 | 115 | 0.0 | 1.0 | 0.00 | 0.02 | 0.02 | 77 | 1010.4 |
| 20260906003739 | 78 | 128 | 0.0 | 1.0 | 0.00 | 0.02 | 0.02 | 78 | 1010.1 |
| 20260906003234 | 78 | 184 | 0.0 | 0.0 | 0.00 | 0.02 | 0.02 | 77 | 1010.2 |
| 20260906002735 | 78 | 184 | 0.0 | 0.0 | 0.00 | 0.02 | 0.02 | 76 | 1010.0 |
| 20260906002235 | 78 | 184 | 0.0 | 0.0 | 0.00 | 0.02 | 0.02 | 76 | 1009.6 |
| 20260906001730 | 78 | 184 | 0.0 | 1.0 | 0.00 | 0.02 | 0.02 | 76 | 1009.5 |
| 20260906001225 | 79 | 184 | 1.0 | 1.0 | 0.00 | 0.02 | 0.02 | 76 | 1009.7 |
| 20260906000721 | 79 | 185 | 0.0 | 1.0 | 0.00 | 0.02 | 0.02 | 75 | 1009.7 |
| 20260906000215 | 80 | 184 | 0.0 | 0.0 | 0.00 | 0.02 | 0.02 | 75 | 1010.0 |
| 20260905235715 | 80 | 185 | 1.0 | 1.0 | 0.00 | 0.02 | 0.02 | 74 | 1009.9 |
| 20260905235210 | 80 | 184 | 0.0 | 0.0 | 0.00 | 0.02 | 0.02 | 72 | 1010.1 |
| 20260905234705 | 81 | 184 | 0.0 | 0.0 | 0.00 | 0.02 | 0.02 | 72 | 1010.1 |
| 20260905234201 | 81 | 185 | 0.0 | 0.0 | 0.00 | 0.02 | 0.02 | 71 | 1009.9 |
| 20260905233656 | 82 | 128 | 0.0 | 0.0 | 0.00 | 0.02 | 0.02 | 71 | 1010.0 |
| 20260905233155 | 82 | 9 | 0.0 | 2.0 | 0.00 | 0.02 | 0.02 | 70 | 1010.3 |
| 20260905232651 | 83 | 120 | 1.0 | 1.0 | 0.00 | 0.02 | 0.02 | 67 | 1010.4 |
| 20260905232146 | 84 | 193 | 0.0 | 1.0 | 0.00 | 0.02 | 0.02 | 67 | 1010.1 |
| 20260905231641 | 84 | 192 | 0.0 | 1.0 | 0.00 | 0.02 | 0.02 | 65 | 1010.3 |
| 20260905231137 | 85 | 226 | 2.0 | 3.0 | 0.00 | 0.02 | 0.02 | 63 | 1010.4 |
| 20260905230633 | 86 | 218 | 3.0 | 3.0 | 0.00 | 0.02 | 0.02 | 60 | 1010.2 |
| 20260905230131 | 86 | 169 | 0.0 | 1.0 | 0.00 | 0.02 | 0.02 | 59 | 1010.0 |
| 20260905225631 | 86 | 121 | 0.0 | 1.0 | 0.00 | 0.02 | 0.02 | 60 | 1009.9 |
| 20260905225126 | 86 | 135 | 0.0 | 1.0 | 0.00 | 0.02 | 0.02 | 61 | 1010.2 |
| 20260905224625 | 85 | 162 | 0.0 | 1.0 | 0.00 | 0.02 | 0.02 | 62 | 1009.8 |
| 20260905224125 | 84 | 189 | 1.0 | 2.0 | 0.00 | 0.02 | 0.02 | 64 | 1010.0 |
| 20260905223622 | 83 | 137 | 0.0 | 1.0 | 0.00 | 0.02 | 0.02 | 66 | 1010.1 |
| 20260905223118 | 82 | 213 | 1.0 | 2.0 | 0.00 | 0.02 | 0.02 | 67 | 1009.8 |
| 20260905222619 | 82 | 70 | 3.0 | 3.0 | 0.00 | 0.02 | 0.02 | 66 | 1009.7 |
| 20260905222114 | 83 | 122 | 1.0 | 2.0 | 0.00 | 0.02 | 0.02 | 66 | 1010.0 |
| 20260905221609 | 83 | 104 | 1.0 | 3.0 | 0.00 | 0.02 | 0.02 | 65 | 1010.3 |
| 20260905221106 | 83 | 120 | 0.0 | 2.0 | 0.00 | 0.02 | 0.02 | 65 | 1010.1 |
| 20260905220600 | 84 | 86 | 1.0 | 2.0 | 0.00 | 0.02 | 0.02 | 65 | 1010.2 |
| 20260905220057 | 84 | 73 | 4.0 | 7.0 | 0.00 | 0.02 | 0.02 | 64 | 1010.3 |
| 20260905215556 | 84 | 84 | 2.0 | 7.0 | 0.00 | 0.02 | 0.02 | 62 | 1010.4 |
| 20260905215052 | 85 | 68 | 2.0 | 6.0 | 0.00 | 0.02 | 0.02 | 62 | 1010.1 |
| 20260905214548 | 86 | 1 | 3.0 | 3.0 | 0.00 | 0.02 | 0.02 | 60 | 1009.9 |
| 20260905214043 | 86 | 124 | 0.0 | 2.0 | 0.00 | 0.02 | 0.02 | 61 | 1009.8 |
| 20260905213538 | 86 | 100 | 1.0 | 3.0 | 0.00 | 0.02 | 0.02 | 61 | 1009.8 |
| 20260905213033 | 86 | 100 | 1.0 | 2.0 | 0.00 | 0.02 | 0.02 | 59 | 1009.8 |
| 20260905212528 | 86 | 220 | 0.0 | 1.0 | 0.00 | 0.02 | 0.02 | 57 | 1009.8 |
| 20260905212027 | 86 | 188 | 0.0 | 1.0 | 0.00 | 0.02 | 0.02 | 59 | 1010.1 |
| 20260905211523 | 86 | 183 | 1.0 | 1.0 | 0.00 | 0.02 | 0.02 | 59 | 1010.3 |
| 20260905211019 | 86 | 161 | 0.0 | 2.0 | 0.00 | 0.02 | 0.02 | 59 | 1010.1 |
| 20260905210514 | 86 | 162 | 1.0 | 3.0 | 0.00 | 0.02 | 0.02 | 58 | 1010.2 |
| 20260905210014 | 87 | 179 | 2.0 | 6.0 | 0.00 | 0.02 | 0.02 | 57 | 1010.3 |
| 20260905205514 | 86 | 186 | 0.0 | 1.0 | 0.00 | 0.02 | 0.02 | 58 | 1010.4 |
| 20260905205013 | 85 | 158 | 1.0 | 3.0 | 0.00 | 0.02 | 0.02 | 59 | 1010.7 |
| 20260905204509 | 84 | 111 | 3.0 | 4.0 | 0.00 | 0.02 | 0.02 | 63 | 1010.9 |
| 20260905204008 | 84 | 174 | 3.0 | 4.0 | 0.00 | 0.02 | 0.02 | 65 | 1011.1 |
| 20260905203503 | 85 | 161 | 4.0 | 4.0 | 0.00 | 0.02 | 0.02 | 65 | 1010.7 |
| 20260905202959 | 82 | 176 | 0.0 | 1.0 | 0.00 | 0.02 | 0.02 | 68 | 1010.7 |
| 20260905202454 | 80 | 43 | 1.0 | 1.0 | 0.00 | 0.02 | 0.02 | 71 | 1010.9 |
| 20260905201949 | 80 | 158 | 1.0 | 3.0 | 0.00 | 0.02 | 0.02 | 75 | 1011.2 |
| 20260905201444 | 80 | 224 | 2.0 | 4.0 | 0.00 | 0.02 | 0.02 | 75 | 1011.6 |
| 20260905200944 | 81 | 182 | 2.0 | 3.0 | 0.00 | 0.02 | 0.02 | 71 | 1011.4 |
| 20260905200440 | 82 | 96 | 2.0 | 3.0 | 0.07 | 0.02 | 0.02 | 66 | 1011.1 |
| 20260905195938 | 83 | 72 | 3.0 | 6.0 | 0.12 | 0.02 | 0.02 | 65 | 1011.1 |
| 20260905195433 | 85 | 131 | 2.0 | 4.0 | 0.00 | 0.00 | 0.00 | 58 | 1010.8 |
| 20260905194929 | 86 | 56 | 7.0 | 11.0 | 0.00 | 0.00 | 0.00 | 55 | 1010.6 |
| 20260905194429 | 87 | 83 | 2.0 | 9.0 | 0.00 | 0.00 | 0.00 | 53 | 1010.9 |
| 20260905193928 | 89 | 40 | 6.0 | 9.0 | 0.00 | 0.00 | 0.00 | 50 | 1011.1 |
| 20260905193423 | 91 | 74 | 9.0 | 15.0 | 0.00 | 0.00 | 0.00 | 48 | 1010.7 |
| 20260905192919 | 93 | 57 | 4.0 | 15.0 | 0.00 | 0.00 | 0.00 | 46 | 1010.3 |
| 20260905192414 | 95 | 93 | 1.0 | 3.0 | 0.00 | 0.00 | 0.00 | 43 | 1009.9 |
| 20260905191914 | 96 | 114 | 0.0 | 1.0 | 0.00 | 0.00 | 0.00 | 42 | 1009.9 |
| 20260905191413 | 96 | 350 | 1.0 | 2.0 | 0.00 | 0.00 | 0.00 | 41 | 1009.9 |
| 20260905190909 | 96 | 129 | 1.0 | 1.0 | 0.00 | 0.00 | 0.00 | 41 | 1010.1 |
| 20260905190406 | 98 | 115 | 1.0 | 3.0 | 0.00 | 0.00 | 0.00 | 39 | 1010.0 |
| 20260905185905 | 99 | 216 | 1.0 | 3.0 | 0.00 | 0.00 | 0.00 | 37 | 1009.9 |
| 20260905185400 | 100 | 53 | 2.0 | 3.0 | 0.00 | 0.00 | 0.00 | 37 | 1009.9 |
| 20260905184859 | 98 | 136 | 2.0 | 3.0 | 0.00 | 0.00 | 0.00 | 38 | 1009.9 |
| 20260905184359 | 97 | 7 | 2.0 | 3.0 | 0.00 | 0.00 | 0.00 | 38 | 1010.0 |
| 20260905183857 | 97 | 107 | 3.0 | 3.0 | 0.00 | 0.00 | 0.00 | 39 | 1009.8 |
| 20260905183352 | 96 | 140 | 0.0 | 3.0 | 0.00 | 0.00 | 0.00 | 40 | 1009.9 |
| 20260905182848 | 97 | 157 | 0.0 | 2.0 | 0.00 | 0.00 | 0.00 | 39 | 1010.3 |
| 20260905182347 | 98 | 169 | 3.0 | 8.0 | 0.00 | 0.00 | 0.00 | 38 | 1010.0 |
| 20260905181843 | 98 | 143 | 3.0 | 6.0 | 0.00 | 0.00 | 0.00 | 40 | 1010.2 |
| 20260905181342 | 98 | 127 | 5.0 | 8.0 | 0.00 | 0.00 | 0.00 | 38 | 1010.2 |
| 20260905180842 | 99 | 140 | 3.0 | 6.0 | 0.00 | 0.00 | 0.00 | 38 | 1010.1 |
| 20260905180337 | 98 | 149 | 0.0 | 4.0 | 0.00 | 0.00 | 0.00 | 39 | 1010.4 |
| 20260905175832 | 97 | 108 | 4.0 | 8.0 | 0.00 | 0.00 | 0.00 | 39 | 1010.5 |
| 20260905175331 | 97 | 134 | 4.0 | 7.0 | 0.00 | 0.00 | 0.00 | 39 | 1010.6 |
| 20260905174827 | 98 | 137 | 1.0 | 4.0 | 0.00 | 0.00 | 0.00 | 39 | 1010.5 |
| 20260905174323 | 98 | 173 | 1.0 | 6.0 | 0.00 | 0.00 | 0.00 | 39 | 1010.7 |
| 20260905173818 | 98 | 137 | 3.0 | 7.0 | 0.00 | 0.00 | 0.00 | 39 | 1010.7 |
| 20260905173314 | 98 | 312 | 0.0 | 3.0 | 0.00 | 0.00 | 0.00 | 39 | 1010.8 |
| 20260905172814 | 98 | 20 | 3.0 | 6.0 | 0.00 | 0.00 | 0.00 | 38 | 1011.0 |
| 20260905172312 | 98 | 257 | 2.0 | 7.0 | 0.00 | 0.00 | 0.00 | 39 | 1010.8 |
| 20260905171809 | 98 | 223 | 2.0 | 7.0 | 0.00 | 0.00 | 0.00 | 38 | 1010.7 |
| 20260905171305 | 97 | 231 | 2.0 | 4.0 | 0.00 | 0.00 | 0.00 | 40 | 1010.9 |
| 20260905170801 | 97 | 69 | 1.0 | 4.0 | 0.00 | 0.00 | 0.00 | 41 | 1010.8 |
| 20260905170256 | 97 | 131 | 4.0 | 6.0 | 0.00 | 0.00 | 0.00 | 40 | 1010.9 |
| 20260905165755 | 98 | 175 | 3.0 | 6.0 | 0.00 | 0.00 | 0.00 | 40 | 1011.1 |
| 20260905165252 | 97 | 153 | 1.0 | 3.0 | 0.00 | 0.00 | 0.00 | 40 | 1011.2 |
| 20260905164746 | 96 | 129 | 0.0 | 4.0 | 0.00 | 0.00 | 0.00 | 43 | 1011.2 |
| 20260905164246 | 97 | 135 | 2.0 | 3.0 | 0.00 | 0.00 | 0.00 | 42 | 1011.6 |
| 20260905163742 | 97 | 310 | 1.0 | 7.0 | 0.00 | 0.00 | 0.00 | 41 | 1011.7 |
| 20260905163238 | 97 | 64 | 2.0 | 2.0 | 0.00 | 0.00 | 0.00 | 42 | 1011.6 |
| 20260905162734 | 95 | 118 | 0.0 | 1.0 | 0.00 | 0.00 | 0.00 | 43 | 1011.9 |
| 20260905162233 | 95 | 122 | 0.0 | 3.0 | 0.00 | 0.00 | 0.00 | 44 | 1011.9 |
| 20260905161728 | 95 | 111 | 3.0 | 4.0 | 0.00 | 0.00 | 0.00 | 45 | 1011.8 |
| 20260905161227 | 94 | 91 | 2.0 | 3.0 | 0.00 | 0.00 | 0.00 | 47 | 1011.8 |
| 20260905160725 | 94 | 126 | 4.0 | 4.0 | 0.00 | 0.00 | 0.00 | 47 | 1012.0 |
| 20260905160220 | 94 | 158 | 2.0 | 3.0 | 0.00 | 0.00 | 0.00 | 49 | 1012.0 |
| 20260905155720 | 93 | 131 | 3.0 | 6.0 | 0.00 | 0.00 | 0.00 | 50 | 1012.2 |
| 20260905155219 | 95 | 159 | 2.0 | 3.0 | 0.00 | 0.00 | 0.00 | 49 | 1012.2 |
| 20260905154713 | 95 | 116 | 1.0 | 3.0 | 0.00 | 0.00 | 0.00 | 47 | 1012.3 |
| 20260905154209 | 94 | 273 | 2.0 | 4.0 | 0.00 | 0.00 | 0.00 | 49 | 1012.4 |
| 20260905153705 | 94 | 193 | 2.0 | 2.0 | 0.00 | 0.00 | 0.00 | 50 | 1012.4 |
| 20260905153200 | 93 | 120 | 1.0 | 3.0 | 0.00 | 0.00 | 0.00 | 52 | 1012.4 |
| 20260905152654 | 94 | 292 | 5.0 | 6.0 | 0.00 | 0.00 | 0.00 | 50 | 1012.7 |
| 20260905152149 | 93 | 143 | 1.0 | 2.0 | 0.00 | 0.00 | 0.00 | 53 | 1012.7 |
| 20260905151644 | 93 | 356 | 2.0 | 4.0 | 0.00 | 0.00 | 0.00 | 53 | 1012.7 |
| 20260905151140 | 92 | 203 | 2.0 | 4.0 | 0.00 | 0.00 | 0.00 | 54 | 1012.2 |
| 20260905150635 | 92 | 173 | 2.0 | 4.0 | 0.00 | 0.00 | 0.00 | 55 | 1012.6 |
| 20260905150133 | 92 | 312 | 2.0 | 3.0 | 0.00 | 0.00 | 0.00 | 53 | 1012.4 |
| 20260905145631 | 92 | 140 | 1.0 | 3.0 | 0.00 | 0.00 | 0.00 | 55 | 1012.7 |
| 20260905145131 | 90 | 171 | 0.0 | 2.0 | 0.00 | 0.00 | 0.00 | 55 | 1012.7 |
| 20260905144626 | 90 | 190 | 2.0 | 3.0 | 0.00 | 0.00 | 0.00 | 58 | 1012.7 |
| 20260905144125 | 91 | 324 | 1.0 | 4.0 | 0.00 | 0.00 | 0.00 | 58 | 1012.7 |
| 20260905143620 | 90 | 175 | 2.0 | 2.0 | 0.00 | 0.00 | 0.00 | 59 | 1012.7 |
| 20260905143115 | 90 | 248 | 2.0 | 3.0 | 0.00 | 0.00 | 0.00 | 59 | 1012.6 |
| 20260905142614 | 89 | 176 | 1.0 | 2.0 | 0.00 | 0.00 | 0.00 | 61 | 1012.8 |
| 20260905142113 | 89 | 207 | 1.0 | 2.0 | 0.00 | 0.00 | 0.00 | 61 | 1012.8 |
| 20260905141613 | 88 | 184 | 1.0 | 1.0 | 0.00 | 0.00 | 0.00 | 62 | 1013.0 |
| 20260905141110 | 87 | 201 | 1.0 | 4.0 | 0.00 | 0.00 | 0.00 | 64 | 1013.1 |
| 20260905140610 | 86 | 158 | 0.0 | 2.0 | 0.00 | 0.00 | 0.00 | 65 | 1013.0 |
| 20260905140109 | 86 | 180 | 1.0 | 2.0 | 0.00 | 0.00 | 0.00 | 66 | 1012.9 |
| 20260905135604 | 86 | 170 | 0.0 | 1.0 | 0.00 | 0.00 | 0.00 | 67 | 1012.9 |
| 20260905135059 | 85 | 178 | 1.0 | 2.0 | 0.00 | 0.00 | 0.00 | 68 | 1013.1 |
| 20260905134554 | 85 | 150 | 0.0 | 3.0 | 0.00 | 0.00 | 0.00 | 67 | 1013.2 |
| 20260905134053 | 85 | 133 | 0.0 | 1.0 | 0.00 | 0.00 | 0.00 | 70 | 1013.3 |
| 20260905133549 | 85 | 126 | 1.0 | 1.0 | 0.00 | 0.00 | 0.00 | 70 | 1013.3 |
| 20260905133048 | 84 | 139 | 0.0 | 1.0 | 0.00 | 0.00 | 0.00 | 71 | 1013.1 |
| 20260905132548 | 83 | 162 | 0.0 | 1.0 | 0.00 | 0.00 | 0.00 | 72 | 1013.1 |
| 20260905132043 | 83 | 116 | 1.0 | 1.0 | 0.00 | 0.00 | 0.00 | 73 | 1013.2 |
| 20260905131538 | 83 | 33 | 1.0 | 2.0 | 0.00 | 0.00 | 0.00 | 73 | 1013.0 |
| 20260905131034 | 83 | 97 | 1.0 | 2.0 | 0.00 | 0.00 | 0.00 | 73 | 1013.0 |
| 20260905130532 | 83 | 114 | 1.0 | 1.0 | 0.00 | 0.00 | 0.00 | 72 | 1013.1 |
| 20260905130028 | 82 | 125 | 0.0 | 1.0 | 0.00 | 0.00 | 0.00 | 73 | 1013.1 |
| 20260905125527 | 81 | 152 | 0.0 | 0.0 | 0.00 | 0.00 | 0.00 | 76 | 1013.0 |
| 20260905125023 | 81 | 210 | 1.0 | 2.0 | 0.00 | 0.00 | 0.00 | 76 | 1013.0 |
| 20260905124519 | 81 | 209 | 1.0 | 2.0 | 0.00 | 0.00 | 0.00 | 75 | 1013.0 |
| 20260905124015 | 80 | 217 | 0.0 | 1.0 | 0.00 | 0.00 | 0.00 | 78 | 1013.0 |
| 20260905123511 | 79 | 217 | 0.0 | 0.0 | 0.00 | 0.00 | 0.00 | 82 | 1012.8 |
| 20260905123008 | 77 | 217 | 0.0 | 0.0 | 0.00 | 0.00 | 0.00 | 86 | 1012.9 |
| 20260905122507 | 77 | 217 | 1.0 | 1.0 | 0.00 | 0.00 | 0.00 | 85 | 1013.1 |
| 20260905122002 | 77 | 198 | 1.0 | 2.0 | 0.00 | 0.00 | 0.00 | 86 | 1013.0 |
| 20260905121457 | 76 | 190 | 0.0 | 1.0 | 0.00 | 0.00 | 0.00 | 89 | 1013.1 |
| 20260905120956 | 75 | 191 | 0.0 | 1.0 | 0.00 | 0.00 | 0.00 | 92 | 1013.0 |
| 20260905120450 | 74 | 191 | 0.0 | 1.0 | 0.00 | 0.00 | 0.00 | 94 | 1012.8 |
| 20260905115946 | 73 | 191 | 0.0 | 0.0 | 0.00 | 0.00 | 0.00 | 95 | 1012.7 |
| 20260905115445 | 73 | 191 | 0.0 | 0.0 | 0.00 | 0.00 | 0.00 | 96 | 1012.8 |
| 20260905114940 | 72 | 191 | 0.0 | 0.0 | 0.00 | 0.00 | 0.00 | 96 | 1012.8 |
| 20260905114440 | 72 | 191 | 0.0 | 0.0 | 0.00 | 0.00 | 0.00 | 96 | 1012.6 |
| 20260905113938 | 72 | 191 | 0.0 | 0.0 | 0.00 | 0.00 | 0.00 | 96 | 1012.4 |
| 20260905113434 | 71 | 191 | 0.0 | 1.0 | 0.00 | 0.00 | 0.00 | 96 | 1012.7 |
| 20260905112929 | 71 | 191 | 0.0 | 1.0 | 0.00 | 0.00 | 0.00 | 96 | 1012.3 |
| 20260905112425 | 71 | 191 | 0.0 | 0.0 | 0.00 | 0.00 | 0.00 | 96 | 1012.2 |
| 20260905111919 | 71 | 191 | 0.0 | 0.0 | 0.00 | 0.00 | 0.00 | 96 | 1012.1 |
| 20260905111414 | 71 | 191 | 0.0 | 0.0 | 0.00 | 0.00 | 0.00 | 96 | 1012.1 |
| 20260905110914 | 71 | 191 | 0.0 | 0.0 | 0.00 | 0.00 | 0.00 | 96 | 1012.0 |
| 20260905110408 | 71 | 191 | 0.0 | 0.0 | 0.00 | 0.00 | 0.00 | 96 | 1011.9 |
| 20260905105903 | 72 | 191 | 0.0 | 0.0 | 0.00 | 0.00 | 0.00 | 96 | 1011.9 |
| 20260905105403 | 72 | 191 | 0.0 | 0.0 | 0.00 | 0.00 | 0.00 | 96 | 1011.8 |
| 20260905104902 | 72 | 191 | 0.0 | 0.0 | 0.00 | 0.00 | 0.00 | 96 | 1011.7 |
| 20260905104359 | 72 | 191 | 0.0 | 0.0 | 0.00 | 0.00 | 0.00 | 96 | 1012.0 |
| 20260905103858 | 72 | 191 | 0.0 | 0.0 | 0.00 | 0.00 | 0.00 | 96 | 1011.8 |
| 20260905103354 | 72 | 191 | 0.0 | 0.0 | 0.00 | 0.00 | 0.00 | 96 | 1011.7 |
| 20260905102849 | 72 | 191 | 0.0 | 0.0 | 0.00 | 0.00 | 0.00 | 96 | 1011.8 |
| 20260905102346 | 72 | 191 | 0.0 | 1.0 | 0.00 | 0.00 | 0.00 | 96 | 1011.7 |
| 20260905101846 | 72 | 191 | 0.0 | 1.0 | 0.00 | 0.00 | 0.00 | 96 | 1011.9 |
| 20260905101344 | 72 | 191 | 0.0 | 2.0 | 0.00 | 0.00 | 0.00 | 96 | 1011.7 |
| 20260905100839 | 72 | 164 | 0.0 | 0.0 | 0.00 | 0.00 | 0.00 | 96 | 1011.8 |
| 20260905100335 | 72 | 164 | 0.0 | 0.0 | 0.00 | 0.00 | 0.00 | 96 | 1011.9 |
| 20260905095835 | 72 | 164 | 0.0 | 0.0 | 0.00 | 0.00 | 0.00 | 96 | 1011.7 |
| 20260905095334 | 72 | 164 | 0.0 | 0.0 | 0.00 | 0.00 | 0.00 | 96 | 1011.8 |
| 20260905094829 | 72 | 164 | 0.0 | 0.0 | 0.00 | 0.00 | 0.00 | 96 | 1011.9 |
| 20260905094325 | 72 | 164 | 0.0 | 1.0 | 0.00 | 0.00 | 0.00 | 96 | 1011.9 |
| 20260905093824 | 72 | 164 | 0.0 | 0.0 | 0.00 | 0.00 | 0.00 | 96 | 1011.8 |
| 20260905093320 | 72 | 165 | 1.0 | 1.0 | 0.00 | 0.00 | 0.00 | 96 | 1011.8 |
| 20260905092815 | 72 | 130 | 0.0 | 0.0 | 0.00 | 0.00 | 0.00 | 96 | 1011.8 |
| 20260905092315 | 72 | 130 | 0.0 | 0.0 | 0.00 | 0.00 | 0.00 | 96 | 1011.8 |
| 20260905091810 | 72 | 174 | 0.0 | 0.0 | 0.00 | 0.00 | 0.00 | 96 | 1011.7 |
| 20260905091310 | 72 | 174 | 0.0 | 0.0 | 0.00 | 0.00 | 0.00 | 96 | 1011.7 |
| 20260905090809 | 72 | 174 | 0.0 | 0.0 | 0.00 | 0.00 | 0.00 | 95 | 1011.6 |